Regional Weather Roundup
Issued by NWS

Home | Current Version | Previous Version | Text Only | Print | Product List | Glossary Off
Versions: 1 2 3 4 5 6 7 8 9 10 11 12 13 14 15 16 17 18 19 20 21 22 23 24 25 26 27 28 29 30 31 32 33 34 35 36 37 38 39 40 41 42 43 44 45 46 47 48 49 50

000
ASUS43 KBIS 260910
RWRND

NORTH DAKOTA REGIONAL WEATHER ROUNDUP
NATIONAL WEATHER SERVICE BISMARCK ND
400 AM CDT THU MAY 26 2016

NOTE: "FAIR" INDICATES FEW OR NO CLOUDS BELOW 12,000 FEET WITH NO
SIGNIFICANT WEATHER AND/OR OBSTRUCTIONS TO VISIBILITY.


NDZ001>003-009>011-017-261000-
NORTHWEST NORTH DAKOTA

CITY           SKY/WX    TMP DP  RH WIND       PRES   REMARKS
WILLISTON      MOCLDY    46  44  93 W3        29.81S
MINOT          CLOUDY    58  55  90 W9        29.74R
MINOT AFB      CLOUDY    55  55  99 NW6       29.72S FOG
$$

NDZ018>021-031>035-040>046-261000-
SOUTHWEST NORTH DAKOTA

CITY           SKY/WX    TMP DP  RH WIND       PRES   REMARKS
BISMARCK       CLEAR     47  45  93 SW5       29.80F
DICKINSON      CLEAR     43  39  86 W7        29.80F
GARRISON         N/A     52  50  93 NW16      29.77S
HETTINGER ARPT CLEAR     38  35  89 CALM      29.86S
$$

NDZ004>008-012>016-024-026-027-054-261000-
NORTHEAST NORTH DAKOTA

CITY           SKY/WX    TMP DP  RH WIND       PRES   REMARKS
GRAND FORKS    CLOUDY    57  55  93 S7        29.68F
GRND FRKS AFB  CLOUDY    55  55  99 SW2       29.69S
DEVILS LAKE    CLOUDY    54  54 100 W5        29.73R
$$

NDZ022-023-025-028>030-036>039-047>053-261000-
SOUTHEAST NORTH DAKOTA

CITY           SKY/WX    TMP DP  RH WIND       PRES   REMARKS
FARGO          PTCLDY    53  51  93 S6        29.74R FOG
JAMESTOWN      CLOUDY    56  54  93 W12       29.73F
$$





USA.gov is the U.S. government's official web portal to all federal, state and local government web resources and services.